Regional Weather Roundup
Issued by NWS Newport/Morehead, NC

Current Version | Previous Version | Graphics & Text | Print | Product List | Glossary Off
Versions: 1 2 3 4 5 6 7 8 9 10 11 12 13 14 15 16 17 18 19 20 21 22 23 24 25 26 27 28 29 30 31 32 33 34 35 36 37 38 39 40 41 42 43 44 45 46 47 48 49 50

000
ASUS42 KMHX 241010
RWRMHX
WEATHER ROUNDUP FOR EASTERN NORTH CAROLINA
NATIONAL WEATHER SERVICE NEWPORT/MOREHEAD CITY NC
500 AM EST MON NOV 24 2014

NOTE: "FAIR" INDICATES FEW OR NO CLOUDS BELOW 12,000 FEET
WITH NO SIGNIFICANT WEATHER AND/OR OBSTRUCTIONS TO VISIBILITY

NCZ015>017-031-032-045>047-102-103-241100-
NORTH COAST

CITY           SKY/WX    TMP DP  RH WIND       PRES   REMARKS
EDENTON        CLOUDY    66  65  97 S13G22    29.80R FOG
ELIZABETH CITY CLOUDY    70  65  84 S9        29.79S
KITTY HAWK     CLOUDY    64  64  97 S10G20    29.81R FOG
MANTEO         CLOUDY    58  58  99 S18       29.83S

$$

NCZ045>047-081-094-103-104-241100-
CENTRAL COAST

CITY           SKY/WX    TMP DP  RH WIND       PRES   REMARKS
FRISCO         CLOUDY    70  67  90 SW21G31   29.86R FOG
SWANQUARTER      N/A     59 N/A N/A S15       29.79S

$$

NCZ095-097-098-100-101-241100-
SOUTHERN COAST

CITY           SKY/WX    TMP DP  RH WIND       PRES   REMARKS
BEAUFORT       LGT RAIN  66  66 100 S12       29.85S
CEDAR ISLAND     N/A     68 N/A N/A S9G16     29.88S
JACKSONVILLE   LGT RAIN  66  65  96 S8        29.83S FOG
PINEY ISLAND   LGT RAIN  70  67  90 SW10      29.85R
WILMINGTON     CLOUDY    67  65  93 SW10      29.83S


$$

NCZ011>013-027>030-043-044-078>080-089-090>093-098-241100-
COASTAL PLAIN

CITY           SKY/WX    TMP DP  RH WIND       PRES   REMARKS
AHOSKIE        MOCLDY    67  65  93 S6        29.78S
CLINTON        PTCLDY    65  65  99 CALM      29.82R
ELIZABETHTOWN  DRIZZLE   66  66  99 CALM      29.81S
GOLDSBORO      PTCLDY    66  66  99 SW6       29.79R
GREENVILLE     MOCLDY    68  66  94 SW8       29.83R
HAVELOCK       CLOUDY    69  67  93 SW8G20    29.84S
KENANSVILLE    CLOUDY    66  65  95 SW3       29.82S
KINSTON        MOCLDY    68  65  92 SW8       29.82R
NEW BERN       LGT RAIN  70  66  87 SW9       29.84R
RICHLANDS      CLOUDY    66  64  94 S8        29.82S
ROCKY MOUNT    CLEAR     65  62  90 S8        29.79S
WASHINGTON     MOCLDY    68  66  94 S6        29.81R
WHITEVILLE     RAIN      66  64  94 S7        29.82R

$$

AMZ130-135-150-152-154-156-158-170-250-252-270-ANZ085-086-088-633-658-670-241100-
MARINE OBSERVATIONS

STATION/POSITION TIME  TEMP    WIND        PRES    WAVE   SWELL
                       AIR SEA DIR/SP/G            HT/PER HT/PER
                 (UTC) (F)     (DEG/KT/KT) (MB)    (FT/S) (FT/S)
CHESAPEAKE LIGHT 0900   61     180/ 27/ 28 1009.0
64 E VA BEACH    1000   67 61  170/ 23/ 27 1009.3   11/ 9   8/ 9
DUCK             1000   68 56  170/ 26/ 30 1007.4
2 E DUCK         1000      58                N/A     8/ 9   2/11
10 NE DUCK       1000      58                N/A    11/ 9   3/11
OREGON INLET     1000   61 53  170/ 16/ 21 1009.8
13E OREGON INLT  1000      64                N/A    15/10   5/11
HATTERAS CG      1000   70 60  200/ 10/ 15 1011.2
DIAMOND BUOY     1000   75     170/ 23/ 29 1010.4   14/ 9   8/15
17 S OCRACOKE    NOT AVBL
CAPE LOOKOUT     0900   64     190/ 10/ 11 1010.5
BEAUFORT LAB     1000   65 56  210/  7/ 10 1009.8
30 SE NEW RIVER  1000   72 69  210/ 14/ 17 1011.0   10/ 9  10/ 9
5 SE WRIGHTSVLE  0900   59 60  200/  4/  6 1009.6
225 S CAPE HAT   0934   74 73  190/ 23/ 31 1015.1   10/ 8   2/16
41 SE CHARLESTON 1000   76 74  210/ 19/ 23 1010.2   10/10   7/10

$$


USA.gov is the U.S. government's official web portal to all federal, state and local government web resources and services.